Date String (YYYY-MM-DD hh:mm:ss) UTC,Instrument flags,Ambient pressure (hPa),Sample flow (lpm),Bypass flow (lpm),Sample temperature (°C),Ambient temperature (°C),ASC tube jacket temperature (°C),LED temperature (°C),Box temperature (°C),Sample RH (%),Span deviation,Mass concentration (μg/m³),Mass concentration (μg/m³),Mass concentration (μg/m³)
DateTimeUTC,F1_M11,P_M11,Q1_M11,Q2_M11,T1_M11,T2_M11,T3_M11,T4_M11,T5_M11,U1_M11,ZSPAN_M11,X0_M11,X2_M11,X1_M11
2021-10-05 19:00:00,,0831.2,5.00,0.00,29.6,26.0,00.0,38.6,30.9,13.7,0000.0,0015.96,0004.61,0003.74
2021-10-05 19:01:00,,0831.2,4.99,0.00,29.5,25.9,00.0,38.6,30.8,14.2,0000.1,0015.39,0004.58,0003.74
2021-10-05 19:02:00,,0831.2,5.00,0.00,29.4,26.4,00.0,38.6,30.9,14.3,-000.4,0015.10,0004.55,0003.73
2021-10-05 19:03:00,,0831.1,5.00,0.00,29.4,26.8,00.0,38.5,31.0,14.2,-000.6,0015.32,0004.56,0003.73
2021-10-05 19:04:00,,0831.1,5.01,0.00,29.4,27.3,00.0,38.5,31.1,14.3,-000.4,0015.02,0004.54,0003.73
2021-10-05 19:05:00,,0831.1,4.99,0.00,29.4,27.7,00.0,38.5,31.2,14.2,-000.4,0014.23,0004.58,0003.74
2021-10-05 19:06:00,,0831.1,5.00,0.00,29.5,28.0,00.0,38.5,31.3,14.2,0000.1,0013.68,0004.58,0003.75
2021-10-05 19:07:00,,0831.0,5.00,0.00,29.5,28.3,00.0,38.5,31.4,14.0,0001.2,0013.67,0004.58,0003.75
2021-10-05 19:08:00,,0831.0,5.00,0.00,29.6,28.5,00.0,38.5,31.4,14.0,0001.0,0012.13,0004.58,0003.77
2021-10-05 19:09:00,,0831.0,5.00,0.00,29.6,28.7,00.0,38.5,31.5,14.0,0000.7,0011.94,0004.60,0003.77
2021-10-05 19:10:00,,0831.0,5.00,0.00,29.7,28.8,00.0,38.6,31.6,14.0,0000.0,0011.57,0004.63,0003.76
2021-10-05 19:11:00,,0831.0,5.00,0.00,29.7,28.3,00.0,38.6,31.4,14.0,0000.0,0010.98,0004.67,0003.75
2021-10-05 19:12:00,,0831.0,5.00,0.00,29.6,26.4,00.0,38.6,30.9,14.1,0000.0,0011.05,0004.69,0003.74
2021-10-05 19:13:00,,0830.9,5.01,0.00,29.4,25.8,00.0,38.5,30.7,14.2,0000.0,0011.77,0004.72,0003.74
2021-10-05 19:14:00,,0830.9,5.00,0.00,29.3,26.2,00.0,38.5,30.8,14.4,0000.0,0012.41,0004.73,0003.74
2021-10-05 19:15:00,,0830.9,5.01,0.00,29.3,26.7,00.0,38.5,30.9,14.3,0000.0,0012.09,0004.76,0003.73
2021-10-05 19:16:00,,0830.9,4.99,0.00,29.3,27.1,00.0,38.4,31.0,14.1,0000.0,0012.22,0004.75,0003.73
2021-10-05 19:17:00,,0830.9,5.01,0.00,29.3,27.5,00.0,38.4,31.1,14.2,0000.6,0013.03,0004.76,0003.73
2021-10-05 19:18:00,,0830.9,5.00,0.00,29.4,27.9,00.0,38.4,31.2,14.0,0001.6,0012.89,0004.72,0003.70
2021-10-05 19:19:00,,0830.9,5.01,0.00,29.4,28.1,00.0,38.4,31.3,14.0,0000.0,0012.90,0004.72,0003.69
2021-10-05 19:20:00,,0830.8,5.00,0.00,29.5,28.4,00.0,38.4,31.4,13.9,0000.0,0012.76,0004.68,0003.68
2021-10-05 19:21:00,,0830.8,5.01,0.00,29.6,28.6,00.0,38.5,31.4,13.9,0001.0,0013.53,0004.66,0003.69
2021-10-05 19:22:00,,0830.8,5.00,0.00,29.6,28.8,00.0,38.5,31.5,13.8,0002.4,0013.75,0004.63,0003.69
2021-10-05 19:23:00,,0830.8,5.00,0.00,29.7,28.5,00.0,38.5,31.5,13.7,0002.2,0013.78,0004.63,0003.70
2021-10-05 19:24:00,,0830.8,5.00,0.00,29.6,26.6,00.0,38.5,30.9,13.8,0002.0,0013.72,0004.62,0003.71
2021-10-05 19:25:00,,0830.8,5.01,0.00,29.4,25.6,00.0,38.5,30.6,13.9,0001.7,0012.69,0004.56,0003.70
2021-10-05 19:26:00,,0830.7,5.00,0.00,29.3,25.9,00.0,38.5,30.7,13.8,0001.7,0013.02,0004.55,0003.70
2021-10-05 19:27:00,,0830.7,4.99,0.00,29.2,26.3,00.0,38.4,30.8,13.9,0001.4,0012.85,0004.54,0003.68
2021-10-05 19:28:00,,0830.8,5.01,0.00,29.2,26.8,00.0,38.4,30.9,13.9,0000.5,0011.88,0004.53,0003.68
2021-10-05 19:29:00,,0830.8,4.99,0.00,29.3,27.3,00.0,38.4,31.0,14.0,0000.0,0011.32,0004.51,0003.69
2021-10-05 19:30:00,,0830.8,4.99,0.00,29.3,27.7,00.0,38.4,31.1,13.8,0000.4,0011.22,0004.49,0003.68
2021-10-05 19:31:00,,0830.8,5.00,0.00,29.4,28.0,00.0,38.4,31.2,13.8,0000.0,0011.21,0004.49,0003.68
2021-10-05 19:32:00,,0830.8,5.00,0.00,29.4,28.3,00.0,38.4,31.3,13.9,0000.0,0010.48,0004.47,0003.68
2021-10-05 19:33:00,,0830.8,5.00,0.00,29.5,28.5,00.0,38.4,31.4,13.8,0000.0,0010.24,0004.49,0003.68
2021-10-05 19:34:00,,0830.8,5.01,0.00,29.5,28.5,00.0,38.4,31.4,14.0,0000.0,0009.96,0004.48,0003.67
2021-10-05 19:35:00,,0830.6,5.00,0.00,29.5,27.0,00.0,38.4,31.0,13.9,0000.0,0009.53,0004.46,0003.67
2021-10-05 19:36:00,,0830.6,5.00,0.00,29.3,25.6,00.0,38.4,30.6,13.9,0000.0,0009.97,0004.50,0003.69
2021-10-05 19:37:00,,0830.6,5.00,0.00,29.2,25.8,00.0,38.4,30.6,14.1,0000.0,0009.63,0004.50,0003.70
2021-10-05 19:38:00,,0830.6,5.00,0.00,29.2,26.2,00.0,38.3,30.7,14.1,0000.0,0009.67,0004.49,0003.71
2021-10-05 19:39:00,,0830.6,5.00,0.00,29.1,26.7,00.0,38.3,30.8,14.1,0000.0,0009.89,0004.50,0003.71
2021-10-05 19:40:00,,0830.6,5.00,0.00,29.2,27.1,00.0,38.3,30.9,14.0,0000.0,0010.07,0004.55,0003.70
2021-10-05 19:41:00,,0830.6,5.01,0.00,29.2,27.5,00.0,38.3,31.0,13.9,0000.0,0009.99,0004.55,0003.71
2021-10-05 19:42:00,,0830.6,5.00,0.00,29.2,27.8,00.0,38.3,31.1,14.0,0000.0,0010.25,0004.56,0003.72
2021-10-05 19:43:00,,0830.6,4.99,0.00,29.3,28.1,00.0,38.3,31.2,14.0,0000.0,0010.58,0004.61,0003.72
2021-10-05 19:44:00,,0830.6,5.00,0.00,29.3,28.3,00.0,38.3,31.2,13.9,0000.0,0012.24,0004.62,0003.73
2021-10-05 19:45:00,,0830.6,4.99,0.00,29.4,28.5,00.0,38.3,31.3,14.3,0000.0,0013.71,0004.68,0003.75
2021-10-05 19:46:00,,0830.6,5.00,0.00,29.5,28.6,00.0,38.3,31.4,13.9,0000.0,0014.14,0004.68,0003.75
2021-10-05 19:47:00,,0830.5,5.00,0.00,29.5,28.8,00.0,38.4,31.5,13.9,0002.9,0014.47,0004.73,0003.76
2021-10-05 19:48:00,,0830.5,5.00,0.00,29.6,28.9,00.0,38.4,31.5,14.0,0003.5,0014.89,0004.77,0003.76
2021-10-05 19:49:00,,0830.5,4.99,0.00,29.6,28.1,00.0,38.4,31.3,13.9,0003.3,0015.54,0004.80,0003.76
2021-10-05 19:50:00,,0830.4,5.01,0.00,29.5,26.1,00.0,38.4,30.8,14.2,0003.4,0016.39,0004.80,0003.77
2021-10-05 19:51:00,,0830.4,4.99,0.00,29.3,25.8,00.0,38.4,30.7,14.1,0003.2,0017.13,0004.83,0003.79
2021-10-05 19:52:00,,0830.4,5.00,0.00,29.3,26.2,00.0,38.4,30.8,14.1,0003.0,0017.56,0004.89,0003.80
2021-10-05 19:53:00,,0830.4,5.00,0.00,29.2,26.6,00.0,38.3,30.8,14.0,0002.5,0018.38,0004.96,0003.81
2021-10-05 19:54:00,,0830.4,5.00,0.00,29.2,27.1,00.0,38.3,31.0,14.1,0002.5,0018.26,0004.96,0003.82
2021-10-05 19:55:00,,0830.4,5.01,0.00,29.3,27.5,00.0,38.3,31.1,14.1,0002.1,0017.09,0004.96,0003.84
2021-10-05 19:56:00,,0830.4,5.00,0.00,29.3,27.8,00.0,38.3,31.1,14.0,0002.0,0016.70,0004.98,0003.84
2021-10-05 19:57:00,,0830.4,5.00,0.00,29.4,28.1,00.0,38.3,31.2,14.0,0000.1,0017.20,0005.02,0003.84
2021-10-05 19:58:00,,0830.4,5.00,0.00,29.4,28.4,00.0,38.3,31.3,14.2,0000.9,0016.59,0005.04,0003.86
2021-10-05 19:59:00,,0830.4,4.99,0.00,29.5,28.6,00.0,38.4,31.4,14.1,0000.5,0016.01,0005.01,0003.87
